Regional Weather Roundup
Issued by NWS

Home | Current Version | Previous Version | Text Only | Print | Product List | Glossary Off
Versions: 1 2 3 4 5 6 7 8 9 10 11 12 13 14 15 16 17 18 19 20 21 22 23 24 25 26 27 28 29 30 31 32 33 34 35 36 37 38 39 40 41 42 43 44 45 46 47 48 49 50

000
ASUS43 KFSD 010310
RWRSD

WEATHER ROUNDUP FOR SOUTH DAKOTA
NATIONAL WEATHER SERVICE SIOUX FALLS SD
1000 PM CDT MON AUG 31 2015

NOTE: "FAIR" INDICATES FEW OR NO CLOUDS BELOW 12,000 FEET WITH NO
SIGNIFICANT WEATHER AND/OR OBSTRUCTIONS TO VISIBILITY.


SDZ001>005-009-010-012>017-010400-
NORTHWEST AND NORTH CENTRAL SOUTH DAKOTA

CITY           SKY/WX    TMP DP  RH WIND       PRES   REMARKS
BUFFALO          N/A     65  52  62 SE9       29.89R
FAITH            N/A     67  52  58 SE9       29.94R
MOBRIDGE       MOCLDY    61  54  77 NE3       29.90R
$$

SDZ012>016-024>037-041>051-057-063-072>074-010400-
SOUTHWEST AND SOUTH CENTRAL SOUTH DAKOTA

CITY           SKY/WX    TMP DP  RH WIND       PRES   REMARKS
RAPID CTY ARPT CLOUDY    65  58  78 SE5       29.97R
PIERRE         MOCLDY    66  61  84 CALM      29.91R
CUSTER         CLOUDY    60  52  74 NE3       30.09S
ELLSWORTH AFB  CLOUDY    66  58  75 S6        29.96R
PHILIP         MOCLDY    66  61  84 E3        29.93R
PINE RIDGE     CLOUDY    68  57  68 NE5       29.97R
WINNER         FAIR      72  62  71 NE5       29.93R
$$

SDZ004>011-016>023-039-040-010400-
NORTHEAST SOUTH DAKOTA

CITY           SKY/WX    TMP DP  RH WIND       PRES   REMARKS
ABERDEEN       MOCLDY    64  61  90 CALM      29.90R
WATERTOWN      MOCLDY    70  66  87 N6        29.90R
BROOKINGS      PTCLDY    73  68  83 S8        29.91R
SISSETON         N/A     68  64  87 W5        29.88R
$$

SDZ017-020-022-023-036>040-048>070-010400-
SOUTHEAST SOUTH DAKOTA

CITY           SKY/WX    TMP DP  RH WIND       PRES   REMARKS
SIOUX FALLS    PTCLDY    76  68  76 S12       29.90R
HURON          MOCLDY    67  65  93 NW3       29.89R
CHAMBERLAIN    PTCLDY    71  64  78 NE3       29.92R
MITCHELL       MOCLDY    71  68  90 NW5       29.88R
YANKTON        CLEAR     73  68  83 E5        29.88R
$$

ABBREVIATIONS USED IN REMARKS
   TC - TEMPERATURE IN CELSIUS
  WCI - WIND CHILL INDEX
   HX - HEAT INDEX
  VSB - VISIBILITY




USA.gov is the U.S. government's official web portal to all federal, state and local government web resources and services.